Tracking 18843 objects as of 20-November-2017
HD Live streaming from Space Station
objects crossing your sky now

CZ-2D DEB

Track CZ-2D DEB now!
10-day predictions


NORAD ID: 28742
Int'l Code: 2005-024F
Perigee: 517.0 km
Apogee: 678.4 km
Inclination: 97.7 °
Period: 96.5 minutes
Semi major axis: 6968 km
RCS: 0.0146 m2 (small)
Launch date: July 5, 2005
Source: People's Republic of China (PRC)
Launch site: Jiuquan Satellite Launch Center, China (JSC)

Note: This is SATELLITE DEBRIS
aabbcc
Your satellite tracking list
Your tracking list is empty




NASA's NSSDC Master Catalog

Two Line Element Set (TLE):
1 28742U 05024F   17324.20126291  .00001588  00000-0  14175-3 0  9997
2 28742  97.6959 119.5615 0115805  60.6419 300.6307 14.92351472660340
Source of the keplerian elements: AFSPC